[[{"header":{"parameterUnit":"m.s-1","parameterCategory":1,"la1":30.2991,"la2":30.254,"lo1":-89.0895,"lo2":-89.0444,"dy":0.0017,"dx":0.0017,"nx":28,"ny":28,"refTime":"2025-05-21T21:00:00:Z","depth":0,"parameterNumber":2,"parameterNumberName":"U-component_of_WINDS"},"data":[0,0,0,0,0,0,0,0,0,0,0,0,0,0,0,0,0,0,0,0,0,0,0,0,0,0,0,0,0,0,0,0,0,0,0,0,0,0,0,0,0,0,0,0,0,0,0,0,0,0,0,0,0,0,0,0,0,0,-2.8043,-2.8043,0,-2.806,-2.806,-2.806,-2.8032,-2.8031,-2.803,-2.8029,-2.8045,-2.8047,-2.8048,0,0,0,0,0,0,0,0,0,0,0,0,0,-2.7986,-2.7987,-2.8043,-2.8043,-2.8044,-2.806,-2.806,-2.806,-2.8032,-2.8031,-2.8029,-2.8028,-2.8045,-2.8047,-2.8048,0,0,0,0,0,0,0,0,0,0,0,0,0,-2.8008,-2.7988,-2.8043,-2.8031,-2.803,-2.806,-2.806,-2.806,-2.8032,-2.8031,-2.8029,-2.8028,-2.8044,-2.8046,-2.8048,-2.809,0,0,-2.8055,-2.8055,0,0,0,0,0,0,0,0,-2.8007,-2.801,-2.8033,-2.8032,-2.8031,-2.8042,-2.8046,-2.807,-2.8032,-2.8031,-2.8029,-2.8027,-2.8045,-2.8047,-2.8054,-2.8091,-2.8092,-2.8055,-2.8056,-2.8057,-2.8057,0,0,0,0,0,0,0,-2.8005,-2.8009,-2.805,-2.8033,-2.8032,-2.8025,-2.8027,-2.8051,-2.8046,-2.8031,-2.8029,-2.8032,-2.8045,-2.8052,-2.8054,-2.8092,-2.8055,-2.8056,-2.8058,-2.8059,-2.8164,-2.8166,0,0,0,0,0,0,-2.8005,-2.8008,-2.8049,-2.805,-2.8015,-2.8027,-2.8029,-2.804,-2.8046,-2.8046,-2.8033,-2.803,-2.8049,-2.8051,-2.8054,-2.8103,-2.8057,-2.8059,-2.806,-2.8163,-2.8164,-2.8166,0,0,0,0,0,0,-2.8004,-2.8009,-2.8048,-2.8029,-2.8033,-2.803,-2.8043,-2.8041,-2.8048,-2.8047,-2.8046,-2.8041,-2.8048,-2.8051,-2.8081,-2.8103,-2.806,-2.8061,-2.8161,-2.8163,-2.8165,-2.82,0,0,0,0,0,0,-2.8003,-2.8009,-2.8024,-2.8029,-2.8034,-2.8075,-2.8044,-2.8043,-2.8052,-2.8048,-2.8054,-2.8054,-2.8047,-2.8079,-2.8083,-2.8105,-2.8063,-2.8159,-2.8162,-2.8165,-2.8197,-2.8203,-2.8209,0,0,0,0,0,-2.8001,-2.8034,-2.8025,-2.803,-2.8054,-2.8077,-2.8079,-2.8071,-2.8054,-2.8069,-2.8069,-2.8054,-2.8101,-2.8082,-2.8087,-2.8109,-2.8157,-2.8161,-2.8164,-2.8194,-2.8202,-2.8209,0,0,0,0,0,0,-2.8031,-2.8034,-2.8025,-2.806,-2.8068,-2.8072,-2.8091,-2.808,-2.8093,-2.8089,-2.8078,-2.808,-2.8112,-2.8114,-2.8093,-2.815,-2.8126,-2.8131,-2.8147,-2.8154,-2.816,-2.8158,-2.8065,0,0,0,0,0,-2.8042,-2.806,-2.8062,-2.8093,-2.8098,-2.8094,-2.8103,-2.8097,-2.8104,-2.8107,-2.8109,-2.8117,-2.8134,-2.8145,-2.816,-2.8198,-2.8199,-2.8217,-2.8223,-2.8227,-2.8231,-2.8251,-2.8258,-2.8178,-2.8178,-2.8178,0,0,-2.8064,-2.8068,-2.808,-2.8099,-2.8105,-2.8124,-2.8097,-2.8118,-2.8132,-2.8111,-2.8138,-2.8141,-2.8149,-2.8183,-2.8199,-2.8186,-2.8254,-2.8232,-2.8236,-2.8237,-2.8255,-2.8263,-2.827,-2.818,-2.818,-2.818,0,0,-2.8114,-2.812,-2.8146,-2.8152,-2.8161,-2.8158,-2.8165,-2.817,-2.8171,-2.8199,-2.8183,-2.82,-2.8229,-2.8235,-2.8242,-2.8297,-2.8283,-2.8303,-2.8333,-2.8352,-2.8359,-2.8364,-2.8382,-2.8389,-2.8307,-2.8307,-2.8307,0,-2.814,-2.8168,-2.8161,-2.8183,-2.8191,-2.8174,-2.8201,-2.8207,-2.8221,-2.8227,-2.8214,-2.8249,-2.8254,-2.8289,-2.8303,-2.831,-2.8316,-2.83,-2.8358,-2.8364,-2.8369,-2.8386,-2.8393,-2.8309,-2.8309,-2.8309,-2.8308,0,-2.82,-2.822,-2.824,-2.8253,-2.8265,-2.8289,-2.8285,-2.8297,-2.829,-2.8289,-2.8318,-2.8324,-2.8339,-2.8348,-2.8341,-2.8382,-2.8374,-2.836,-2.8335,-2.8379,-2.8394,-2.8401,-2.8312,-2.8311,-2.8311,-2.831,0,0,-2.8266,-2.8277,-2.8284,-2.829,-2.8299,-2.8314,-2.8339,-2.8354,-2.8364,-2.8375,-2.8394,-2.842,-2.8407,-2.8415,-2.8409,-2.8427,-2.8468,-2.841,-2.841,-2.8419,-2.8513,-2.8522,-2.853,-2.8461,-2.8462,-2.8463,-2.8512,0,-2.8315,-2.8355,-2.835,-2.8389,-2.8407,-2.8392,-2.8413,-2.8421,-2.8421,-2.8437,-2.8438,-2.8455,-2.8437,-2.8442,-2.8459,-2.846,-2.8487,-2.8457,-2.8477,-2.8478,-2.8473,-2.8538,-2.8548,-2.8593,-2.8518,-2.8519,-2.852,0,-2.8376,-2.8389,-2.843,-2.8436,-2.8444,-2.8462,-2.8476,-2.8492,-2.8501,-2.85,-2.851,-2.8502,-2.8526,-2.8503,-2.8535,-2.8515,-2.8523,-2.8525,-2.8527,-2.8526,-2.85,-2.8537,-2.8608,-2.8614,-2.853,-2.8529,-2.8528,0,-2.8418,-2.8446,-2.8474,-2.848,-2.8489,-2.8502,-2.8507,-2.8515,-2.8525,-2.8538,-2.8544,-2.856,-2.8568,-2.858,-2.8576,-2.856,-2.8609,-2.8586,-2.8608,-2.8608,-2.8617,-2.8616,-2.8687,-2.8627,-2.8627,-2.8626,-2.8626,0,-2.8471,-2.8496,-2.8493,-2.851,-2.8538,-2.8532,-2.856,-2.8563,-2.857,-2.8587,-2.8576,-2.8593,-2.8587,-2.8604,-2.8601,-2.8628,-2.8632,-2.8631,-2.863,-2.8631,-2.8631,-2.8634,-2.863,-2.8628,-2.8628,-2.8628,-2.8627,0,-2.8522,-2.8521,-2.855,-2.8557,-2.8559,-2.8579,-2.8585,-2.8601,-2.8602,-2.8624,-2.8628,-2.8629,-2.8648,-2.8646,-2.8667,-2.8665,-2.8698,-2.8693,-2.8694,-2.8692,-2.8714,-2.8711,-2.8788,-2.8797,-2.8733,-2.8734,-2.8734,0,-2.8554,-2.8573,-2.8583,-2.8593,-2.8599,-2.8616,-2.8627,-2.8623,-2.8634,-2.8646,-2.8661,-2.8679,-2.8692,-2.8723,-2.8725,-2.8741,-2.8736,-2.8762,-2.8738,-2.8738,-2.8734,-2.8732,-2.8733,-2.8766,-2.8766,-2.8767,-2.8768,0,-2.8612,-2.8611,-2.8626,-2.8641,-2.8654,-2.8666,-2.8677,-2.8686,-2.8683,-2.8696,-2.8715,-2.8726,-2.8748,-2.8765,-2.8781,-2.8786,-2.8776,-2.8776,-2.8781,-2.8781,-2.878,-2.8779,-2.8704,-2.8773,-2.8772,-2.8772,-2.8772,-2.8772,-2.8653,-2.8669,-2.8678,-2.8695,-2.8703,-2.8714,-2.8729,-2.8732,-2.8748,-2.8765,-2.8762,-2.8783,-2.8793,-2.8812,-2.8819,-2.8836,-2.8826,-2.8835,-2.8836,-2.8838,-2.884,-2.878,-2.8839,-2.8839,-2.8838,-2.8838,-2.8838,0,-2.8708,-2.8714,-2.873,-2.8745,-2.8759,-2.875,-2.8762,-2.8774,-2.8793,-2.8803,-2.8817,-2.8839,-2.8856,-2.8861,-2.8877,-2.889,-2.8886,-2.8894,-2.8892,-2.8893,-2.8848,-2.8841,-2.8897,-2.8897,-2.8897,-2.8897,-2.8897,-2.8897,-2.8738,-2.8765,-2.8765,-2.8795,-2.8801,-2.8821,-2.8828,-2.8838,-2.8846,-2.8871,-2.8885,-2.8888,-2.8896,-2.8914,-2.8929,-2.893,-2.8936,-2.8945,-2.8944,-2.8902,-2.8896,-2.889,-2.8883,-2.8947,-2.8947,-2.8987,-2.8988,-2.8988]},{"header":{"parameterUnit":"m.s-1","parameterCategory":1,"la1":30.2991,"la2":30.254,"lo1":-89.0895,"lo2":-89.0444,"dy":0.0017,"dx":0.0017,"nx":28,"ny":28,"refTime":"2025-05-21T21:00:00:Z","depth":0,"parameterNumber":3,"parameterNumberName":"V-component_of_WINDS"},"data":[0,0,0,0,0,0,0,0,0,0,0,0,0,0,0,0,0,0,0,0,0,0,0,0,0,0,0,0,0,0,0,0,0,0,0,0,0,0,0,0,0,0,0,0,0,0,0,0,0,0,0,0,0,0,0,0,0,0,2.9959,2.996,0,3.0053,3.0054,3.0055,3.0085,3.0085,3.0084,3.0084,3.0177,3.018,3.0183,0,0,0,0,0,0,0,0,0,0,0,0,0,2.9803,2.9806,2.9959,2.996,2.9961,3.0053,3.0054,3.0056,3.0085,3.0085,3.0084,3.0084,3.0176,3.018,3.0183,0,0,0,0,0,0,0,0,0,0,0,0,0,2.9882,2.9807,2.9959,2.9987,2.9991,3.0053,3.0054,3.0056,3.0086,3.0085,3.0084,3.0084,3.0175,3.0179,3.0184,3.0223,0,0,3.0197,3.0199,0,0,0,0,0,0,0,0,2.9877,2.9887,2.9982,2.9986,2.999,3.0057,3.0034,3.0112,3.0086,3.0049,3.0084,3.0083,3.0138,3.0145,3.0164,3.0227,3.0231,3.0197,3.02,3.0202,3.0203,0,0,0,0,0,0,0,2.9872,2.9883,2.9996,2.9983,2.9988,2.9995,3.0005,3.0049,3.0096,3.0053,3.0055,3.0066,3.0139,3.016,3.0166,3.0233,3.0197,3.0201,3.0204,3.0205,3.0335,3.0336,0,0,0,0,0,0,2.9862,2.9879,2.9993,2.9999,2.9931,2.9998,3.001,3.0036,3.0095,3.0104,3.0066,3.0067,3.0153,3.0161,3.017,3.0221,3.0202,3.0206,3.0208,3.0334,3.0335,3.0336,0,0,0,0,0,0,2.9858,2.9872,2.999,2.994,2.9955,3.0002,3.0031,3.0038,3.0058,3.0106,3.0114,3.0078,3.0152,3.0164,3.021,3.0224,3.0208,3.0212,3.0333,3.0335,3.0336,3.0323,0,0,0,0,0,0,2.9854,2.987,2.9886,2.994,2.9958,3.0029,3.0032,3.004,3.0066,3.0068,3.0119,3.0127,3.0153,3.0204,3.0214,3.023,3.0215,3.0332,3.0334,3.0335,3.0322,3.0323,3.0324,0,0,0,0,0,2.9848,2.9877,2.9887,2.99,2.9978,3.003,3.004,3.0069,3.0067,3.0083,3.0114,3.0126,3.0221,3.0208,3.0221,3.0238,3.0331,3.0333,3.0335,3.0321,3.0323,3.0324,0,0,0,0,0,0,2.9822,2.9885,2.9896,2.9943,2.9981,3.0035,3.0055,3.007,3.0108,3.0108,3.0142,3.0153,3.0198,3.0222,3.0207,3.028,3.0277,3.0281,3.0262,3.0264,3.0265,3.0258,3.0218,0,0,0,0,0,2.9822,2.9859,2.9912,2.9949,2.9967,3.0008,3.0032,3.0051,3.0091,3.0107,3.0141,3.0179,3.0218,3.0242,3.028,3.0326,3.0338,3.0344,3.0345,3.0346,3.0349,3.0377,3.038,3.0343,3.0343,3.0343,0,0,2.9822,2.9861,2.9882,2.9945,2.9976,3.0014,3.0021,3.006,3.0088,3.0113,3.0159,3.0186,3.023,3.0277,3.0299,3.0299,3.0363,3.0349,3.0349,3.0352,3.0379,3.0383,3.0386,3.0344,3.0344,3.0344,0,0,2.9842,2.9875,2.991,2.9942,2.999,3.0018,3.0026,3.0078,3.0097,3.0145,3.0165,3.0198,3.0264,3.0295,3.032,3.0354,3.0366,3.0365,3.0371,3.0397,3.04,3.0403,3.0416,3.042,3.0368,3.0368,3.0368,0,2.9835,2.9893,2.9926,2.9964,2.9992,3.0018,3.0054,3.0083,3.014,3.0158,3.0158,3.0242,3.0274,3.0329,3.0337,3.0356,3.0367,3.0359,3.0397,3.04,3.0404,3.0416,3.0421,3.0368,3.0368,3.0368,3.0368,0,2.9883,2.9923,2.9946,3.0003,3.0033,3.0069,3.0108,3.0134,3.0152,3.0179,3.0228,3.0267,3.0314,3.0329,3.0346,3.0387,3.0386,3.0391,3.0388,3.0406,3.0418,3.0423,3.0367,3.0367,3.0367,3.0368,0,0,2.9887,2.9964,2.9971,2.9998,3.0055,3.0086,3.0124,3.0172,3.0194,3.0234,3.0267,3.0323,3.0329,3.0357,3.0378,3.0401,3.0426,3.0403,3.0405,3.0407,3.0475,3.0471,3.0476,3.0435,3.0436,3.0437,3.0472,0,2.9914,2.9985,3.0016,3.0073,3.0111,3.0137,3.0171,3.0209,3.0236,3.0271,3.0301,3.0341,3.0345,3.0362,3.0386,3.0418,3.044,3.0416,3.0466,3.0468,3.0454,3.0482,3.0478,3.0508,3.0476,3.0477,3.0478,0,2.9954,2.9996,3.0056,3.011,3.0127,3.0157,3.0204,3.0238,3.0282,3.03,3.0332,3.0353,3.0394,3.039,3.0448,3.0431,3.0453,3.0472,3.0474,3.048,3.0473,3.0488,3.0518,3.0523,3.0486,3.0485,3.0484,0,2.9952,3.0023,3.0069,3.0091,3.0154,3.0175,3.0202,3.0246,3.0273,3.0314,3.0332,3.0377,3.0401,3.0436,3.0468,3.0462,3.0523,3.0521,3.0539,3.0539,3.0551,3.0549,3.0584,3.0565,3.0565,3.0565,3.0565,0,2.9978,3.0014,3.0069,3.0097,3.0138,3.0175,3.0214,3.0243,3.0283,3.0317,3.0342,3.0373,3.0414,3.0451,3.0476,3.0521,3.0532,3.0547,3.0554,3.0545,3.0543,3.056,3.0559,3.0566,3.0566,3.0566,3.0566,0,2.9982,3.002,3.0072,3.0128,3.0144,3.0172,3.022,3.0248,3.0278,3.0321,3.0333,3.0378,3.0423,3.0459,3.0517,3.0534,3.0581,3.0588,3.0567,3.057,3.0586,3.0584,3.0634,3.0642,3.0617,3.0617,3.0617,0,2.9996,3.0025,3.0085,3.0111,3.0138,3.0179,3.0207,3.0244,3.0273,3.0327,3.0349,3.0396,3.0435,3.0505,3.0543,3.0588,3.0597,3.0611,3.0603,3.0594,3.0597,3.0595,3.0599,3.0611,3.0611,3.0611,3.0611,0,3.0018,3.0036,3.0076,3.0124,3.0158,3.0197,3.0237,3.0256,3.0301,3.0332,3.0379,3.0409,3.047,3.0516,3.0565,3.0593,3.061,3.0614,3.0621,3.0612,3.0598,3.0607,3.0569,3.0612,3.0612,3.0612,3.0612,3.0612,3.0028,3.0055,3.0103,3.0148,3.0182,3.0219,3.0249,3.0283,3.0323,3.0376,3.0395,3.0443,3.0488,3.0557,3.0585,3.0623,3.0624,3.0634,3.0636,3.0638,3.0637,3.0593,3.0632,3.0632,3.0632,3.0632,3.0632,0,3.0051,3.0083,3.0125,3.018,3.0216,3.023,3.0275,3.0304,3.0347,3.0388,3.0427,3.0481,3.0527,3.0569,3.0617,3.064,3.0648,3.0651,3.0649,3.0656,3.0633,3.0623,3.0643,3.0643,3.0643,3.0643,3.0643,3.0643,3.0067,3.0115,3.0139,3.0204,3.0236,3.0284,3.0309,3.0343,3.0377,3.0437,3.0475,3.0503,3.0545,3.0597,3.0639,3.0651,3.0667,3.0667,3.0681,3.0659,3.0657,3.0656,3.0646,3.0671,3.0671,3.07,3.07,3.0701]}]]